GFSGL_850_temp_000.txt.gz
Temp
6 6 5 4 4 4 3 3 2 1 1 -0 -1 -1 -2 -3 -2 -2 -3 -3 -3 -3 -3 -3 -3 -3 -3 -3 -3 -3 -2 -1 -1 -1 -1 -0 0 0 1 -0 -1 -0 0
5 4 4 4 3 3 2 2 1 -1 -1 -1 -2 -2 -2 -2 -3 -3 -3 -3 -4 -4 -4 -4 -4 -4 -3 -4 -4 -4 -3 -2 -2 -1 -1 -1 -1 -1 -0 0 0 0 0
5 4 3 3 2 2 1 0 -0 -1 -1 -1 -2 -2 -2 -3 -3 -3 -3 -3 -4 -4 -4 -4 -4 -4 -4 -4 -4 -4 -3 -3 -3 -3 -3 -2 -2 -2 -1 -1 -1 -0 0
4 4 3 2 2 1 0 -0 -1 -1 -1 -2 -2 -2 -3 -3 -3 -3 -4 -4 -4 -5 -5 -5 -5 -5 -5 -4 -5 -5 -4 -4 -5 -5 -5 -4 -3 -3 -2 -2 -1 -1 -1
4 3 3 3 1 1 0 -1 -1 -2 -2 -2 -2 -3 -3 -3 -4 -4 -5 -5 -6 -6 -6 -6 -6 -6 -5 -5 -5 -6 -6 -6 -5 -5 -6 -5 -5 -4 -3 -3 -3 -2 -2
3 3 3 1 1 0 -1 -1 -2 -2 -2 -2 -3 -3 -3 -4 -5 -5 -6 -6 -7 -8 -8 -7 -8 -7 -6 -6 -6 -7 -7 -7 -7 -8 -8 -8 -7 -6 -6 -5 -5 -5 -4
4 4 2 0 -0 -0 -2 -2 -2 -2 -2 -3 -3 -3 -4 -5 -6 -6 -7 -8 -8 -9 -10 -9 -9 -8 -8 -8 -8 -8 -8 -8 -8 -8 -9 -9 -8 -7 -7 -7 -6 -6 -6
3 4 1 1 -0 -1 -1 -2 -3 -2 -2 -3 -3 -4 -5 -5 -6 -7 -8 -9 -9 -10 -11 -10 -10 -10 -9 -9 -9 -9 -9 -9 -9 -9 -9 -9 -9 -8 -9 -8 -8 -8 -7
3 2 1 -1 -1 -1 -2 -2 -3 -2 -3 -3 -4 -4 -5 -6 -7 -8 -9 -9 -10 -11 -11 -11 -10 -10 -10 -10 -10 -10 -9 -9 -9 -9 -9 -9 -9 -9 -9 -9 -9 -8 -8
0 0 -1 -2 -2 -2 -2 -3 -2 -3 -3 -4 -4 -5 -6 -7 -8 -9 -9 -10 -11 -11 -11 -11 -11 -11 -10 -10 -10 -10 -10 -10 -10 -10 -9 -9 -9 -9 -9 -8 -8 -9 -8
-1 -2 -2 -3 -3 -2 -2 -2 -3 -3 -3 -4 -5 -6 -7 -8 -9 -9 -10 -11 -12 -12 -12 -12 -11 -10 -11 -11 -11 -10 -10 -11 -10 -10 -10 -10 -9 -9 -9 -9 -9 -8 -8
-2 -3 -3 -3 -2 -2 -2 -3 -3 -3 -4 -5 -6 -7 -8 -9 -9 -10 -11 -11 -12 -12 -12 -12 -11 -11 -11 -11 -11 -11 -12 -12 -11 -10 -10 -10 -10 -9 -9 -9 -9 -8 -8
-3 -3 -3 -2 -3 -3 -3 -3 -4 -4 -5 -5 -7 -8 -9 -10 -11 -11 -12 -12 -13 -13 -13 -12 -12 -12 -12 -12 -11 -11 -11 -11 -10 -10 -10 -10 -10 -9 -9 -8 -8 -8 -8
-3 -4 -4 -3 -3 -3 -3 -4 -4 -5 -5 -6 -8 -9 -10 -11 -12 -12 -13 -13 -13 -13 -13 -12 -12 -12 -12 -12 -12 -12 -11 -11 -11 -11 -11 -10 -10 -9 -9 -8 -8 -7 -8
-4 -5 -4 -4 -4 -4 -4 -5 -5 -6 -6 -7 -8 -9 -10 -11 -12 -14 -14 -14 -14 -13 -13 -13 -13 -13 -13 -12 -12 -12 -12 -12 -12 -11 -11 -10 -10 -9 -9 -8 -7 -7 -7
-5 -5 -5 -5 -5 -5 -5 -5 -6 -7 -7 -8 -9 -9 -10 -11 -12 -14 -14 -14 -14 -13 -13 -13 -14 -14 -13 -13 -13 -13 -13 -12 -12 -12 -11 -11 -10 -10 -9 -8 -7 -7 -7
-5 -5 -6 -6 -6 -6 -6 -6 -7 -8 -8 -9 -9 -9 -10 -12 -12 -14 -14 -14 -14 -14 -14 -14 -14 -14 -14 -14 -14 -13 -13 -13 -13 -12 -12 -11 -11 -10 -9 -9 -8 -8 -8
-5 -6 -6 -7 -7 -7 -7 -8 -8 -8 -8 -9 -9 -9 -11 -11 -12 -13 -14 -14 -14 -14 -14 -14 -14 -14 -15 -14 -14 -14 -13 -13 -13 -12 -12 -11 -11 -10 -10 -10 -9 -9 -9
-6 -6 -6 -7 -8 -8 -8 -8 -9 -9 -9 -9 -9 -10 -10 -10 -12 -13 -13 -14 -15 -15 -15 -15 -15 -15 -15 -15 -14 -14 -14 -14 -13 -13 -12 -12 -11 -11 -11 -10 -10 -10 -9
-6 -6 -7 -8 -8 -8 -8 -8 -9 -9 -9 -9 -9 -10 -10 -11 -12 -13 -13 -14 -14 -15 -15 -15 -15 -15 -15 -15 -15 -14 -14 -14 -14 -14 -13 -12 -12 -11 -11 -11 -11 -10 -10
-6 -6 -7 -8 -8 -8 -8 -9 -9 -9 -9 -9 -9 -10 -10 -11 -12 -13 -13 -14 -14 -14 -14 -14 -14 -14 -13 -13 -14 -14 -14 -14 -14 -14 -13 -13 -12 -12 -11 -11 -11 -11 -11
-7 -8 -8 -8 -8 -8 -9 -9 -9 -9 -9 -9 -10 -10 -11 -11 -12 -12 -13 -14 -14 -14 -13 -13 -13 -13 -13 -13 -13 -13 -13 -13 -13 -13 -13 -13 -13 -13 -12 -12 -12 -12 -12
-8 -8 -9 -9 -8 -8 -9 -9 -9 -9 -9 -9 -10 -10 -10 -11 -11 -12 -13 -14 -14 -14 -13 -13 -13 -13 -13 -13 -13 -13 -13 -13 -13 -13 -13 -13 -14 -13 -13 -13 -12 -13 -13
-8 -8 -9 -9 -8 -8 -8 -9 -9 -9 -9 -9 -10 -10 -10 -11 -11 -12 -13 -13 -14 -14 -13 -13 -13 -13 -13 -13 -13 -13 -13 -13 -13 -13 -13 -13 -14 -13 -13 -13 -13 -13 -13
-8 -9 -9 -9 -8 -8 -8 -9 -9 -9 -9 -9 -9 -10 -10 -11 -11 -12 -13 -13 -14 -14 -13 -13 -13 -13 -13 -13 -13 -13 -14 -14 -13 -13 -13 -13 -13 -13 -13 -13 -13 -13 -14
-7 -9 -9 -9 -9 -9 -8 -8 -9 -9 -9 -10 -10 -10 -10 -11 -11 -12 -12 -13 -13 -13 -14 -13 -13 -13 -13 -13 -13 -14 -14 -14 -14 -13 -13 -13 -13 -13 -13 -13 -13 -13 -14

GFSGL_850_temp_003.txt.gz
Temp
7 6 6 5 4 4 4 3 3 3 2 1 -1 -1 -2 -2 -2 -3 -3 -3 -4 -4 -4 -4 -4 -5 -5 -4 -4 -4 -5 -4 -4 -3 -2 -1 -1 -1 -1 -1 -2 -2 -1
6 6 5 4 4 4 4 3 2 2 0 -1 -1 -2 -2 -2 -3 -3 -3 -4 -4 -4 -5 -5 -5 -5 -4 -4 -4 -4 -4 -3 -4 -5 -3 -3 -2 -2 -1 -1 -1 -3 -2
6 5 5 4 2 2 2 1 1 0 -0 -1 -2 -2 -2 -3 -3 -3 -3 -4 -4 -4 -5 -5 -5 -5 -5 -5 -5 -4 -4 -4 -4 -4 -4 -4 -3 -3 -2 -2 -2 -2 -3
5 5 5 4 3 2 1 -1 -2 -1 -1 -2 -2 -2 -2 -3 -3 -3 -4 -4 -4 -5 -6 -6 -6 -6 -6 -6 -6 -6 -5 -5 -5 -5 -5 -5 -4 -4 -4 -3 -2 -2 -1
4 3 3 3 2 1 0 -1 -2 -1 -2 -2 -2 -2 -3 -3 -3 -4 -4 -5 -5 -6 -7 -7 -8 -8 -8 -7 -7 -6 -6 -6 -6 -6 -6 -6 -5 -5 -5 -4 -4 -4 -2
3 3 2 2 2 1 -1 -2 -2 -2 -2 -2 -2 -3 -3 -3 -4 -4 -5 -6 -7 -8 -8 -9 -9 -10 -9 -9 -8 -8 -7 -8 -8 -8 -8 -7 -8 -8 -7 -6 -6 -6 -5
2 1 1 0 0 0 -1 -2 -2 -2 -2 -2 -3 -3 -3 -4 -5 -6 -7 -7 -8 -8 -9 -10 -10 -10 -10 -10 -10 -9 -9 -9 -9 -9 -9 -8 -8 -8 -8 -8 -8 -8 -8
1 0 0 -0 -0 -1 -2 -3 -2 -2 -2 -2 -3 -3 -4 -5 -6 -7 -8 -8 -9 -9 -10 -10 -11 -11 -11 -10 -10 -10 -10 -9 -9 -9 -9 -9 -9 -9 -9 -9 -9 -9 -8
-0 -0 -1 -2 -2 -3 -3 -3 -2 -3 -2 -3 -3 -4 -4 -5 -6 -8 -8 -9 -10 -10 -11 -11 -11 -11 -11 -11 -10 -10 -10 -10 -9 -10 -10 -10 -10 -10 -9 -9 -9 -9 -8
-1 -1 -2 -2 -2 -3 -3 -2 -2 -3 -3 -3 -4 -4 -5 -7 -8 -9 -9 -10 -11 -11 -11 -11 -12 -11 -11 -11 -11 -11 -11 -10 -10 -10 -10 -10 -10 -9 -9 -9 -9 -9 -9
-1 -2 -2 -3 -3 -2 -2 -2 -2 -3 -3 -4 -4 -5 -6 -7 -9 -10 -11 -11 -12 -12 -12 -12 -12 -12 -11 -11 -12 -12 -12 -12 -12 -12 -11 -10 -10 -10 -10 -9 -9 -9 -9
-2 -2 -3 -3 -3 -3 -3 -3 -3 -3 -4 -4 -5 -6 -7 -8 -10 -11 -12 -12 -13 -13 -13 -13 -12 -12 -12 -12 -12 -12 -12 -12 -12 -11 -11 -11 -11 -10 -10 -10 -9 -9 -9
-2 -3 -4 -4 -3 -4 -3 -3 -4 -4 -4 -5 -6 -7 -8 -9 -10 -11 -12 -13 -13 -13 -13 -13 -13 -13 -13 -12 -12 -12 -12 -12 -12 -12 -11 -11 -11 -10 -10 -9 -9 -9 -8
-3 -4 -4 -4 -4 -4 -4 -4 -4 -5 -5 -6 -7 -8 -9 -10 -10 -12 -13 -13 -13 -13 -13 -13 -13 -13 -13 -13 -13 -13 -12 -12 -12 -12 -11 -11 -10 -10 -10 -9 -9 -8 -8
-3 -4 -4 -4 -5 -5 -5 -5 -5 -5 -6 -7 -7 -8 -9 -10 -11 -13 -13 -13 -13 -13 -13 -13 -13 -13 -13 -13 -13 -13 -13 -13 -12 -12 -11 -11 -10 -10 -9 -9 -8 -7 -8
-4 -4 -4 -5 -5 -5 -5 -6 -6 -6 -7 -8 -8 -9 -9 -10 -11 -13 -13 -13 -13 -13 -13 -14 -14 -14 -14 -14 -14 -13 -13 -13 -13 -12 -12 -11 -11 -10 -9 -9 -8 -8 -7
-4 -4 -5 -5 -6 -6 -6 -7 -7 -7 -8 -8 -8 -9 -9 -9 -11 -11 -12 -13 -13 -13 -14 -14 -14 -14 -14 -14 -14 -14 -14 -14 -13 -12 -12 -11 -11 -10 -10 -9 -9 -8 -8
-5 -5 -5 -6 -6 -6 -7 -8 -8 -8 -8 -8 -9 -9 -9 -9 -11 -11 -12 -13 -13 -13 -14 -14 -15 -15 -15 -15 -14 -14 -14 -14 -13 -12 -12 -11 -11 -11 -10 -10 -10 -9 -9
-6 -6 -5 -6 -6 -7 -8 -8 -8 -8 -8 -9 -9 -9 -9 -10 -10 -11 -12 -13 -13 -13 -13 -14 -14 -14 -14 -14 -14 -14 -14 -14 -14 -13 -12 -12 -11 -11 -11 -11 -11 -10 -10
-6 -6 -6 -7 -7 -8 -8 -8 -8 -8 -9 -9 -9 -9 -9 -10 -10 -11 -12 -13 -13 -13 -12 -13 -13 -13 -13 -13 -13 -14 -13 -13 -13 -13 -13 -12 -12 -12 -11 -11 -11 -11 -11
-7 -7 -7 -7 -7 -8 -8 -8 -8 -9 -9 -9 -9 -9 -9 -10 -10 -11 -11 -12 -13 -13 -12 -12 -12 -12 -13 -13 -13 -13 -13 -13 -13 -13 -13 -13 -12 -12 -12 -12 -12 -12 -12
-7 -7 -7 -8 -8 -8 -8 -8 -9 -9 -9 -9 -9 -9 -10 -10 -10 -11 -11 -12 -12 -13 -12 -13 -12 -12 -12 -13 -13 -13 -13 -13 -13 -13 -13 -13 -13 -13 -13 -12 -12 -12 -12
-6 -7 -8 -8 -9 -8 -8 -8 -9 -9 -9 -9 -9 -9 -9 -10 -10 -11 -11 -12 -13 -13 -13 -12 -12 -12 -13 -12 -13 -13 -13 -13 -13 -13 -13 -13 -13 -13 -13 -13 -13 -13 -13
-6 -7 -8 -9 -9 -8 -8 -8 -8 -9 -9 -9 -9 -9 -9 -10 -10 -11 -11 -12 -12 -13 -13 -13 -13 -13 -13 -13 -13 -13 -13 -14 -14 -13 -13 -13 -13 -13 -13 -13 -13 -13 -13
-7 -7 -8 -8 -9 -8 -8 -8 -8 -9 -9 -9 -9 -9 -9 -10 -10 -11 -11 -12 -12 -13 -13 -13 -13 -13 -13 -13 -13 -13 -13 -14 -14 -14 -13 -13 -13 -13 -13 -13 -13 -13 -13
-7 -7 -7 -8 -9 -9 -9 -9 -8 -9 -9 -10 -10 -10 -10 -10 -10 -11 -11 -12 -12 -12 -13 -13 -13 -13 -14 -13 -14 -14 -14 -14 -14 -13 -14 -13 -13 -13 -13 -13 -13 -13 -13

GFSGL_850_temp_006.txt.gz
Temp
6 5 5 5 5 4 3 3 1 1 -0 1 1 -1 -1 -2 -2 -3 -3 -3 -3 -4 -4 -5 -5 -5 -5 -5 -5 -5 -5 -5 -5 -4 -4 -4 -3 -2 -2 -1 -2 -2 -1
5 5 4 3 3 3 3 2 2 0 0 -0 -1 -1 -2 -2 -3 -3 -3 -3 -4 -4 -4 -5 -5 -5 -5 -6 -6 -6 -5 -5 -5 -5 -5 -4 -4 -3 -3 -2 -2 -2 -2
5 5 4 3 3 2 2 2 0 -1 -2 -3 -2 -2 -2 -2 -3 -3 -3 -4 -4 -4 -5 -6 -6 -6 -7 -7 -7 -6 -6 -6 -6 -6 -6 -6 -4 -4 -4 -3 -3 -3 -3
4 4 3 3 2 2 1 -0 -2 -1 -2 -2 -2 -2 -2 -3 -3 -3 -4 -4 -5 -5 -6 -7 -7 -8 -8 -9 -9 -8 -8 -7 -6 -6 -6 -6 -6 -5 -5 -4 -4 -4 -3
3 3 2 1 1 0 -0 -0 -1 -1 -1 -2 -2 -3 -3 -3 -3 -4 -4 -5 -6 -6 -7 -8 -9 -9 -9 -10 -9 -9 -8 -8 -7 -7 -7 -7 -7 -6 -6 -6 -5 -5 -4
2 2 1 0 -0 -1 -1 -2 -2 -2 -2 -3 -4 -3 -3 -3 -4 -5 -6 -6 -7 -8 -9 -9 -10 -10 -10 -10 -10 -10 -10 -9 -9 -9 -8 -8 -8 -7 -7 -7 -7 -7 -6
1 1 1 -0 -1 -2 -2 -2 -2 -3 -3 -3 -3 -3 -4 -4 -5 -5 -6 -8 -8 -9 -9 -10 -11 -11 -11 -11 -11 -10 -10 -10 -10 -10 -9 -9 -9 -8 -8 -8 -8 -8 -8
1 1 -0 -1 -1 -2 -3 -3 -3 -3 -3 -3 -3 -3 -4 -5 -6 -7 -8 -9 -9 -10 -10 -11 -11 -11 -12 -11 -11 -11 -10 -10 -10 -10 -10 -10 -9 -9 -9 -9 -9 -9 -9
1 -0 -1 -2 -2 -3 -3 -3 -3 -3 -3 -3 -3 -4 -5 -5 -6 -8 -9 -10 -11 -11 -11 -11 -12 -12 -12 -11 -11 -11 -11 -10 -10 -10 -10 -10 -10 -10 -10 -10 -9 -9 -9
-0 -1 -2 -2 -3 -3 -3 -3 -3 -3 -3 -4 -4 -5 -6 -6 -7 -9 -10 -11 -12 -12 -12 -12 -12 -12 -12 -11 -11 -11 -12 -11 -11 -10 -10 -10 -10 -10 -10 -10 -9 -10 -9
-1 -2 -2 -3 -4 -3 -3 -3 -4 -4 -4 -4 -5 -6 -6 -7 -8 -9 -10 -12 -13 -13 -13 -12 -12 -12 -12 -12 -12 -12 -12 -12 -12 -12 -12 -11 -11 -10 -10 -10 -9 -9 -9
-2 -2 -3 -4 -4 -4 -4 -4 -4 -4 -5 -5 -6 -6 -7 -8 -9 -10 -11 -13 -13 -13 -13 -13 -13 -13 -13 -12 -12 -12 -12 -12 -11 -11 -11 -11 -11 -11 -11 -10 -10 -10 -10
-2 -3 -3 -4 -4 -4 -4 -4 -4 -5 -5 -6 -6 -7 -8 -9 -9 -10 -11 -13 -13 -13 -13 -13 -13 -13 -13 -13 -13 -13 -12 -12 -12 -12 -11 -11 -11 -11 -10 -10 -9 -9 -9
-3 -3 -4 -4 -4 -4 -5 -5 -5 -6 -6 -6 -7 -8 -9 -9 -9 -10 -12 -13 -13 -13 -13 -13 -13 -13 -13 -13 -13 -13 -13 -13 -13 -12 -12 -11 -11 -10 -10 -9 -9 -9 -8
-4 -4 -4 -4 -5 -5 -5 -6 -6 -6 -7 -7 -8 -8 -9 -9 -10 -11 -13 -13 -13 -13 -13 -13 -13 -13 -13 -13 -13 -13 -13 -13 -12 -12 -12 -11 -11 -10 -9 -9 -9 -8 -8
-5 -5 -5 -5 -5 -6 -6 -7 -7 -7 -8 -8 -8 -9 -9 -9 -10 -11 -12 -12 -13 -13 -13 -13 -14 -14 -14 -14 -14 -14 -14 -13 -13 -12 -12 -11 -11 -10 -10 -9 -9 -8 -8
-5 -5 -5 -6 -6 -6 -7 -7 -8 -8 -8 -8 -8 -9 -9 -10 -10 -11 -11 -12 -12 -12 -13 -14 -14 -14 -14 -14 -14 -14 -14 -14 -13 -12 -12 -11 -11 -10 -10 -10 -9 -9 -9
-5 -5 -6 -6 -6 -6 -7 -8 -8 -8 -8 -8 -9 -9 -9 -10 -10 -11 -11 -12 -12 -12 -13 -13 -14 -14 -14 -14 -14 -14 -14 -14 -13 -13 -12 -12 -11 -11 -11 -11 -10 -10 -9
-6 -6 -6 -6 -6 -7 -7 -8 -8 -8 -9 -9 -9 -9 -9 -10 -10 -11 -11 -12 -12 -12 -12 -13 -13 -13 -13 -13 -13 -14 -14 -14 -13 -13 -13 -12 -12 -11 -11 -11 -11 -11 -11
-6 -7 -6 -7 -7 -7 -8 -8 -8 -9 -9 -9 -9 -9 -9 -10 -10 -11 -11 -12 -12 -12 -12 -12 -12 -13 -13 -13 -13 -13 -13 -13 -13 -13 -13 -13 -12 -12 -12 -12 -12 -12 -11
-7 -7 -7 -7 -8 -8 -8 -8 -8 -9 -9 -9 -9 -9 -9 -10 -10 -10 -11 -12 -12 -13 -13 -12 -12 -12 -13 -13 -13 -13 -13 -13 -13 -13 -13 -13 -13 -13 -13 -13 -12 -12 -12
-7 -7 -7 -8 -8 -9 -9 -8 -8 -9 -9 -9 -9 -9 -9 -9 -10 -10 -11 -11 -12 -12 -13 -13 -13 -12 -12 -12 -12 -13 -13 -13 -13 -13 -13 -13 -13 -13 -13 -13 -13 -13 -13
-6 -6 -7 -7 -8 -9 -9 -8 -8 -9 -9 -9 -9 -9 -9 -9 -10 -10 -11 -11 -12 -12 -13 -13 -13 -13 -13 -13 -13 -13 -13 -13 -13 -13 -13 -13 -13 -13 -13 -13 -13 -13 -13
-6 -6 -7 -7 -8 -9 -9 -9 -9 -9 -9 -9 -9 -9 -9 -9 -10 -10 -11 -11 -12 -12 -13 -13 -13 -13 -13 -13 -13 -13 -13 -13 -13 -13 -13 -13 -13 -13 -13 -13 -13 -13 -13
-6 -7 -7 -7 -8 -9 -9 -9 -9 -9 -9 -9 -9 -9 -10 -10 -10 -10 -11 -11 -11 -12 -12 -13 -13 -13 -13 -13 -13 -14 -14 -14 -14 -13 -13 -13 -13 -13 -13 -13 -13 -13 -13
-6 -7 -7 -7 -7 -8 -8 -8 -9 -9 -9 -9 -10 -10 -10 -10 -10 -11 -11 -11 -12 -12 -12 -12 -13 -13 -14 -14 -14 -14 -14 -14 -14 -14 -14 -14 -14 -13 -13 -13 -13 -13 -13

GFSGL_850_temp_009.txt.gz
Temp
5 5 5 4 4 3 3 2 2 2 1 -0 -1 -3 -3 -2 -2 -3 -3 -3 -3 -4 -4 -5 -5 -5 -5 -5 -6 -6 -6 -6 -6 -6 -5 -5 -5 -5 -5 -3 -2 -2 -2
5 5 4 3 3 2 2 1 1 -0 -0 -1 -1 -2 -2 -2 -2 -3 -3 -3 -4 -4 -5 -5 -6 -6 -6 -7 -7 -7 -7 -7 -7 -7 -6 -6 -5 -5 -5 -5 -3 -3 -3
4 4 3 3 2 2 1 0 0 -0 -1 -1 -2 -2 -2 -2 -3 -3 -3 -4 -4 -5 -6 -6 -6 -7 -8 -8 -8 -8 -9 -8 -8 -8 -7 -6 -6 -6 -5 -5 -4 -4 -4
4 3 3 2 1 0 -0 -1 -1 -2 -2 -2 -2 -2 -3 -3 -3 -3 -4 -4 -5 -6 -6 -7 -8 -9 -9 -9 -10 -10 -9 -9 -8 -8 -7 -7 -7 -7 -6 -5 -5 -4 -4
3 3 2 1 0 -1 -1 -1 -2 -3 -3 -3 -3 -3 -4 -3 -3 -4 -5 -5 -6 -6 -8 -9 -9 -10 -10 -10 -11 -11 -10 -10 -10 -9 -9 -8 -8 -8 -7 -6 -6 -5 -5
3 2 1 0 -1 -1 -2 -3 -3 -3 -3 -3 -4 -4 -3 -3 -4 -5 -5 -6 -7 -8 -9 -10 -10 -11 -11 -11 -11 -11 -11 -11 -10 -10 -10 -10 -9 -9 -8 -8 -8 -7 -6
1 1 -0 -1 -1 -2 -2 -3 -3 -4 -4 -4 -3 -3 -3 -4 -4 -5 -6 -7 -8 -9 -10 -11 -11 -12 -12 -12 -11 -11 -11 -11 -11 -11 -10 -10 -10 -9 -9 -9 -9 -8 -8
0 -0 -1 -2 -2 -2 -3 -3 -3 -3 -4 -3 -3 -4 -4 -4 -5 -6 -7 -8 -9 -10 -11 -12 -12 -12 -12 -12 -12 -11 -11 -11 -11 -11 -11 -10 -10 -10 -10 -9 -9 -9 -9
-0 -1 -2 -2 -3 -3 -3 -3 -3 -3 -3 -3 -4 -4 -5 -6 -6 -7 -8 -9 -9 -10 -11 -12 -12 -13 -12 -12 -11 -11 -11 -11 -11 -11 -11 -11 -10 -10 -10 -10 -10 -10 -10
-1 -2 -2 -3 -3 -4 -4 -3 -3 -4 -4 -4 -6 -5 -6 -7 -7 -8 -9 -9 -10 -11 -12 -12 -12 -12 -12 -12 -12 -12 -12 -11 -11 -11 -11 -12 -11 -11 -10 -10 -10 -10 -9
-2 -2 -3 -3 -3 -4 -4 -4 -4 -4 -4 -5 -6 -6 -7 -7 -8 -9 -9 -10 -12 -13 -13 -12 -13 -13 -13 -12 -12 -12 -12 -12 -12 -12 -12 -12 -12 -11 -11 -10 -10 -10 -10
-3 -3 -3 -3 -4 -4 -4 -4 -4 -4 -5 -6 -6 -7 -8 -8 -9 -9 -9 -10 -13 -13 -13 -13 -13 -14 -13 -13 -13 -13 -13 -12 -12 -12 -12 -11 -11 -11 -11 -11 -11 -10 -10
-3 -4 -4 -4 -4 -4 -4 -5 -5 -5 -6 -7 -7 -7 -8 -9 -9 -10 -10 -11 -12 -13 -13 -13 -13 -13 -13 -13 -13 -13 -13 -13 -13 -12 -12 -12 -11 -11 -11 -10 -10 -10 -10
-4 -4 -4 -5 -5 -4 -5 -5 -6 -6 -7 -7 -8 -8 -9 -9 -10 -10 -10 -11 -12 -12 -12 -13 -13 -13 -13 -13 -13 -13 -13 -13 -13 -12 -12 -11 -11 -10 -10 -10 -10 -9 -9
-5 -5 -5 -5 -6 -5 -6 -6 -7 -7 -7 -8 -8 -9 -9 -9 -10 -10 -11 -11 -12 -12 -12 -12 -12 -12 -13 -13 -13 -13 -13 -13 -13 -12 -12 -11 -11 -10 -10 -9 -9 -8 -8
-6 -5 -5 -5 -6 -6 -6 -7 -7 -8 -8 -8 -9 -9 -9 -9 -10 -10 -11 -12 -12 -12 -12 -12 -12 -13 -13 -13 -13 -13 -13 -13 -13 -12 -12 -11 -11 -10 -10 -9 -9 -9 -8
-6 -5 -5 -5 -6 -6 -6 -7 -7 -8 -8 -9 -9 -9 -9 -10 -10 -10 -11 -12 -12 -12 -12 -12 -12 -13 -13 -13 -14 -14 -14 -14 -13 -13 -12 -11 -11 -11 -11 -10 -10 -9 -9
-6 -6 -6 -6 -6 -6 -7 -7 -8 -8 -9 -9 -9 -9 -9 -10 -10 -10 -11 -12 -12 -12 -12 -12 -12 -12 -12 -13 -13 -14 -14 -13 -13 -13 -12 -12 -12 -11 -11 -11 -11 -10 -10
-6 -6 -6 -7 -7 -7 -7 -8 -8 -8 -9 -9 -9 -9 -9 -10 -10 -10 -11 -12 -12 -13 -13 -12 -12 -12 -12 -12 -13 -13 -13 -13 -13 -13 -13 -13 -12 -12 -12 -12 -12 -11 -11
-6 -6 -7 -7 -7 -7 -7 -8 -8 -9 -9 -9 -9 -9 -9 -10 -10 -10 -11 -11 -12 -13 -13 -13 -13 -12 -12 -12 -12 -13 -13 -13 -13 -13 -13 -13 -13 -13 -12 -12 -12 -12 -12
-6 -7 -7 -7 -8 -8 -8 -9 -9 -9 -9 -9 -9 -9 -9 -9 -9 -10 -11 -11 -12 -12 -13 -13 -13 -13 -12 -12 -12 -13 -13 -13 -13 -13 -13 -13 -13 -13 -13 -13 -13 -13 -13
-6 -6 -7 -7 -8 -8 -8 -9 -9 -9 -8 -9 -9 -9 -9 -9 -10 -10 -10 -11 -11 -12 -13 -13 -13 -13 -13 -13 -13 -12 -12 -13 -13 -13 -13 -13 -13 -13 -13 -13 -13 -13 -13
-7 -6 -6 -7 -7 -7 -8 -9 -9 -9 -9 -9 -9 -9 -9 -9 -9 -9 -10 -11 -11 -12 -12 -13 -13 -13 -13 -13 -13 -13 -13 -13 -13 -12 -13 -13 -13 -13 -13 -13 -13 -13 -13
-7 -7 -6 -6 -7 -7 -8 -8 -8 -9 -9 -9 -9 -9 -9 -9 -9 -10 -10 -10 -11 -11 -12 -12 -12 -13 -13 -13 -13 -13 -13 -14 -13 -13 -13 -13 -13 -13 -13 -13 -13 -13 -13
-7 -7 -7 -7 -7 -8 -8 -8 -8 -8 -9 -9 -9 -9 -9 -10 -10 -10 -10 -11 -11 -11 -12 -12 -12 -13 -13 -13 -13 -13 -14 -14 -14 -14 -14 -14 -14 -13 -13 -13 -13 -13 -13
-7 -7 -7 -7 -7 -7 -7 -8 -8 -8 -8 -9 -9 -9 -9 -10 -10 -10 -11 -11 -11 -11 -12 -12 -12 -13 -13 -13 -13 -14 -14 -14 -14 -14 -14 -14 -14 -14 -14 -14 -14 -14 -14

GFSGL_850_temp_012.txt.gz
Temp
5 5 4 4 3 3 3 2 1 1 0 0 -0 -1 -2 -3 -2 -3 -3 -3 -3 -4 -4 -5 -5 -5 -6 -6 -7 -7 -8 -8 -8 -8 -7 -6 -6 -5 -5 -5 -5 -4 -4
5 4 3 3 2 2 1 1 1 -0 -1 -1 -1 -2 -3 -2 -2 -3 -3 -3 -4 -4 -4 -5 -5 -6 -7 -7 -8 -9 -9 -9 -9 -9 -8 -7 -7 -6 -5 -5 -5 -5 -5
4 3 3 2 2 1 0 0 -0 -1 -2 -2 -2 -3 -3 -2 -3 -3 -3 -4 -4 -4 -5 -6 -6 -7 -8 -9 -9 -10 -10 -10 -10 -10 -9 -8 -8 -7 -6 -6 -6 -6 -6
3 3 2 1 1 0 -0 -1 -1 -2 -3 -3 -3 -3 -3 -3 -3 -3 -3 -4 -5 -5 -6 -7 -8 -9 -10 -10 -11 -11 -11 -11 -11 -10 -10 -9 -8 -7 -7 -7 -6 -6 -5
3 2 1 1 0 -1 -1 -2 -2 -3 -3 -3 -3 -4 -3 -3 -3 -4 -4 -5 -5 -6 -7 -8 -9 -10 -11 -11 -11 -12 -12 -11 -11 -11 -10 -10 -9 -9 -8 -8 -7 -6 -6
2 1 1 -0 -1 -1 -2 -2 -3 -3 -4 -4 -4 -4 -4 -3 -4 -4 -5 -5 -6 -7 -8 -9 -10 -10 -11 -12 -12 -12 -12 -12 -11 -11 -11 -10 -10 -10 -9 -9 -9 -8 -7
2 1 -0 -1 -2 -2 -3 -3 -3 -4 -4 -4 -4 -4 -4 -4 -5 -5 -6 -6 -7 -8 -9 -10 -11 -11 -11 -12 -12 -12 -12 -11 -11 -11 -11 -11 -11 -10 -10 -10 -10 -9 -8
1 -0 -1 -2 -2 -3 -3 -3 -4 -3 -3 -3 -4 -4 -4 -5 -5 -6 -6 -7 -7 -8 -10 -11 -11 -11 -12 -13 -12 -11 -12 -11 -11 -11 -11 -11 -11 -10 -11 -10 -10 -10 -10
-0 -1 -2 -2 -3 -3 -3 -4 -4 -3 -3 -4 -4 -5 -5 -6 -6 -7 -7 -8 -8 -9 -10 -11 -12 -12 -12 -12 -12 -12 -12 -12 -12 -12 -12 -12 -11 -11 -11 -10 -10 -10 -10
-1 -2 -2 -3 -3 -4 -4 -4 -4 -4 -4 -4 -5 -5 -6 -6 -7 -8 -9 -9 -9 -9 -10 -11 -12 -12 -13 -12 -12 -12 -12 -12 -12 -12 -12 -12 -12 -11 -11 -11 -10 -10 -10
-1 -2 -3 -3 -4 -4 -4 -5 -4 -4 -4 -5 -5 -6 -7 -7 -8 -9 -9 -9 -10 -10 -12 -12 -12 -13 -13 -13 -13 -13 -13 -13 -13 -12 -12 -12 -12 -12 -11 -11 -11 -11 -10
-2 -2 -3 -4 -4 -4 -5 -5 -5 -5 -5 -5 -6 -7 -7 -8 -9 -9 -10 -10 -11 -11 -11 -12 -12 -14 -13 -13 -13 -14 -13 -13 -13 -12 -12 -12 -12 -11 -11 -11 -11 -10 -10
-2 -3 -4 -4 -5 -5 -5 -5 -5 -6 -6 -6 -7 -7 -8 -9 -9 -10 -10 -10 -10 -11 -11 -12 -12 -12 -12 -13 -13 -14 -13 -13 -13 -12 -12 -12 -11 -11 -11 -11 -11 -11 -11
-3 -4 -5 -5 -5 -5 -5 -5 -6 -6 -7 -7 -7 -8 -9 -9 -10 -10 -10 -10 -11 -11 -11 -11 -12 -12 -12 -13 -13 -13 -13 -13 -13 -12 -12 -11 -11 -10 -10 -10 -10 -10 -10
-4 -5 -5 -5 -5 -6 -6 -6 -7 -7 -7 -8 -8 -9 -9 -9 -10 -10 -10 -11 -11 -11 -11 -11 -11 -11 -11 -12 -12 -13 -13 -13 -13 -12 -12 -11 -11 -10 -10 -9 -9 -9 -9
-5 -6 -6 -5 -6 -6 -6 -7 -7 -7 -8 -9 -9 -9 -9 -9 -10 -10 -10 -11 -11 -11 -11 -11 -11 -11 -12 -12 -12 -12 -13 -13 -13 -13 -12 -11 -11 -11 -10 -10 -9 -9 -9
-6 -6 -6 -6 -6 -6 -6 -7 -7 -8 -8 -9 -9 -9 -9 -9 -10 -10 -11 -11 -12 -12 -11 -11 -11 -11 -12 -12 -12 -13 -13 -13 -13 -13 -12 -12 -11 -11 -11 -11 -10 -10 -9
-6 -6 -6 -6 -6 -6 -7 -7 -7 -8 -9 -9 -9 -9 -9 -9 -10 -10 -11 -11 -12 -12 -12 -12 -12 -12 -12 -12 -12 -12 -13 -13 -13 -13 -13 -13 -12 -12 -12 -11 -11 -11 -11
-6 -6 -6 -6 -7 -7 -7 -7 -8 -8 -9 -9 -9 -9 -9 -9 -10 -10 -10 -11 -11 -12 -12 -12 -12 -12 -12 -12 -12 -13 -13 -13 -13 -13 -13 -13 -13 -12 -12 -12 -12 -12 -12
-6 -6 -6 -6 -7 -7 -7 -8 -8 -9 -9 -9 -9 -9 -9 -9 -10 -10 -10 -11 -11 -12 -12 -12 -12 -12 -12 -12 -12 -12 -13 -13 -13 -13 -13 -13 -13 -13 -13 -13 -13 -12 -12
-7 -7 -6 -6 -7 -7 -8 -8 -8 -9 -9 -9 -9 -9 -9 -9 -9 -10 -10 -10 -11 -11 -12 -12 -12 -12 -12 -12 -12 -12 -12 -13 -13 -13 -13 -13 -13 -13 -13 -13 -13 -13 -13
-7 -7 -7 -7 -7 -7 -7 -8 -8 -9 -9 -9 -9 -9 -9 -9 -9 -9 -10 -10 -10 -11 -11 -11 -12 -12 -13 -13 -13 -13 -13 -13 -13 -13 -13 -13 -13 -13 -13 -13 -13 -13 -13
-7 -7 -7 -7 -7 -7 -7 -7 -7 -8 -9 -9 -9 -9 -9 -9 -9 -9 -9 -10 -10 -10 -11 -11 -11 -12 -12 -13 -13 -13 -13 -13 -13 -13 -13 -13 -13 -13 -13 -13 -13 -13 -13
-8 -7 -7 -7 -7 -7 -7 -7 -8 -8 -8 -8 -9 -9 -9 -9 -9 -9 -10 -10 -10 -10 -11 -11 -11 -12 -12 -13 -13 -13 -13 -13 -14 -14 -14 -14 -13 -13 -13 -13 -13 -13 -13
-8 -8 -7 -7 -7 -7 -7 -7 -8 -8 -8 -8 -8 -9 -9 -9 -9 -9 -10 -10 -10 -10 -10 -11 -11 -12 -12 -13 -13 -13 -13 -14 -14 -14 -14 -14 -14 -14 -14 -14 -14 -14 -13
-7 -8 -7 -7 -7 -7 -7 -7 -7 -7 -7 -7 -7 -8 -8 -9 -9 -9 -9 -10 -10 -10 -10 -11 -11 -12 -12 -13 -13 -13 -13 -14 -14 -14 -14 -14 -14 -14 -15 -15 -15 -14 -14

GFSGL_850_temp_015.txt.gz
Temp
5 5 4 4 3 3 2 2 1 1 0 -1 -1 -1 -1 -2 -2 -3 -3 -3 -3 -3 -4 -4 -5 -5 -6 -7 -8 -8 -8 -8 -8 -8 -8 -8 -8 -8 -8 -7 -6 -5 -5
5 4 4 3 2 2 1 1 -0 -1 -1 -2 -2 -2 -2 -3 -3 -3 -3 -3 -3 -4 -4 -5 -5 -6 -7 -8 -8 -9 -9 -9 -9 -9 -9 -9 -8 -8 -8 -7 -6 -5 -5
4 4 3 2 1 1 0 -1 -1 -1 -2 -2 -3 -3 -3 -4 -4 -3 -3 -3 -3 -4 -5 -5 -6 -7 -8 -9 -9 -10 -10 -10 -10 -10 -9 -9 -9 -8 -8 -7 -7 -6 -6
4 3 2 1 1 -0 -1 -1 -2 -2 -2 -3 -3 -4 -3 -4 -4 -3 -3 -3 -4 -5 -5 -6 -7 -8 -10 -10 -10 -10 -10 -11 -11 -10 -10 -9 -9 -8 -9 -8 -7 -6 -6
3 3 2 1 -0 -0 -1 -2 -2 -3 -3 -3 -4 -4 -4 -4 -4 -4 -3 -4 -5 -6 -6 -6 -7 -8 -9 -10 -11 -11 -11 -11 -11 -10 -10 -10 -9 -9 -9 -9 -8 -7 -7
3 2 1 0 -0 -1 -2 -2 -2 -3 -3 -4 -4 -4 -4 -4 -4 -4 -4 -5 -6 -6 -7 -7 -8 -9 -11 -12 -11 -12 -12 -12 -11 -11 -10 -10 -9 -9 -9 -9 -10 -9 -7
2 2 1 -0 -1 -2 -2 -3 -3 -3 -3 -4 -4 -4 -4 -4 -5 -5 -5 -6 -6 -7 -7 -8 -10 -12 -12 -12 -12 -12 -11 -11 -11 -12 -11 -10 -10 -10 -10 -10 -10 -10 -9
2 1 -0 -1 -2 -2 -3 -3 -3 -4 -4 -3 -4 -4 -4 -5 -5 -6 -6 -6 -7 -7 -8 -9 -12 -12 -12 -13 -12 -12 -12 -12 -12 -12 -11 -11 -11 -11 -11 -11 -10 -10 -10
1 0 -0 -1 -2 -3 -3 -4 -4 -4 -4 -4 -4 -5 -5 -6 -6 -6 -7 -7 -8 -8 -9 -11 -12 -13 -13 -13 -12 -12 -12 -12 -12 -12 -12 -11 -11 -11 -12 -12 -11 -10 -10
0 -0 -1 -2 -3 -3 -4 -4 -4 -4 -4 -4 -5 -5 -6 -6 -7 -7 -8 -8 -8 -8 -9 -11 -11 -12 -13 -13 -13 -13 -13 -12 -13 -13 -13 -12 -12 -12 -12 -12 -11 -11 -10
-1 -1 -2 -2 -2 -3 -4 -4 -4 -4 -5 -5 -5 -6 -6 -7 -7 -8 -9 -9 -9 -10 -10 -10 -11 -11 -13 -13 -13 -14 -14 -13 -13 -13 -13 -12 -12 -12 -12 -11 -11 -11 -10
-1 -2 -2 -2 -3 -4 -4 -5 -4 -5 -5 -5 -6 -6 -7 -7 -8 -9 -9 -9 -10 -10 -10 -11 -11 -11 -11 -12 -13 -13 -13 -13 -13 -13 -13 -12 -12 -12 -11 -11 -11 -11 -11
-1 -2 -2 -3 -4 -5 -5 -5 -5 -5 -6 -6 -7 -7 -8 -8 -9 -9 -9 -10 -10 -10 -11 -11 -11 -11 -11 -12 -12 -13 -13 -13 -13 -13 -12 -12 -11 -11 -11 -10 -10 -11 -11
-2 -2 -3 -4 -4 -5 -5 -5 -6 -6 -6 -7 -7 -8 -8 -9 -9 -9 -10 -10 -10 -10 -11 -11 -11 -11 -11 -12 -12 -12 -13 -13 -13 -13 -12 -11 -11 -10 -10 -10 -10 -10 -10
-3 -4 -6 -6 -6 -5 -6 -6 -6 -6 -7 -7 -8 -8 -9 -9 -9 -9 -10 -10 -10 -11 -11 -11 -11 -11 -11 -11 -12 -12 -13 -13 -13 -12 -12 -11 -11 -11 -10 -10 -9 -9 -9
-4 -6 -6 -7 -6 -6 -6 -6 -6 -7 -7 -8 -8 -9 -9 -9 -9 -9 -10 -10 -11 -11 -11 -11 -11 -11 -11 -11 -12 -12 -12 -13 -13 -12 -12 -12 -12 -11 -11 -10 -10 -9 -9
-5 -6 -6 -6 -6 -6 -6 -6 -7 -7 -7 -8 -8 -9 -9 -9 -9 -10 -10 -10 -11 -11 -11 -11 -11 -11 -12 -12 -12 -12 -12 -13 -13 -13 -13 -13 -12 -12 -12 -12 -11 -11 -10
-6 -6 -6 -6 -6 -6 -7 -7 -7 -7 -7 -8 -8 -9 -9 -9 -9 -10 -10 -10 -10 -11 -11 -11 -11 -12 -12 -12 -12 -12 -12 -12 -13 -13 -13 -13 -13 -12 -12 -12 -12 -12 -12
-6 -6 -6 -6 -6 -6 -7 -7 -7 -7 -8 -8 -9 -9 -9 -9 -9 -10 -10 -10 -10 -11 -11 -11 -11 -12 -12 -12 -12 -12 -12 -13 -13 -13 -13 -13 -13 -13 -13 -13 -12 -12 -12
-7 -7 -7 -7 -7 -7 -7 -7 -7 -8 -8 -8 -9 -9 -9 -9 -9 -9 -10 -10 -10 -10 -11 -11 -11 -11 -12 -12 -12 -12 -13 -13 -13 -13 -13 -13 -13 -13 -13 -13 -13 -13 -13
-7 -8 -7 -7 -7 -7 -7 -7 -7 -8 -8 -9 -9 -9 -9 -9 -9 -9 -9 -10 -10 -10 -10 -11 -11 -11 -11 -12 -12 -13 -13 -13 -13 -13 -13 -13 -13 -13 -13 -13 -13 -13 -13
-7 -7 -7 -7 -7 -7 -7 -7 -7 -8 -8 -8 -8 -9 -9 -9 -9 -9 -9 -9 -9 -10 -10 -10 -10 -11 -11 -12 -12 -13 -13 -13 -13 -13 -13 -13 -13 -13 -13 -13 -13 -13 -13
-7 -7 -8 -8 -7 -7 -7 -7 -7 -7 -7 -8 -8 -8 -9 -9 -9 -9 -9 -9 -9 -9 -10 -10 -10 -11 -11 -12 -12 -12 -13 -13 -13 -13 -14 -14 -14 -13 -13 -13 -13 -13 -13
-7 -7 -8 -8 -7 -7 -7 -7 -7 -7 -7 -8 -8 -8 -8 -8 -9 -9 -9 -9 -9 -9 -10 -10 -10 -10 -11 -11 -12 -12 -13 -13 -13 -13 -14 -14 -14 -14 -14 -14 -13 -13 -13
-8 -8 -8 -8 -8 -8 -7 -7 -7 -7 -7 -7 -7 -7 -7 -7 -8 -8 -8 -9 -9 -9 -9 -10 -10 -10 -11 -11 -12 -12 -13 -13 -13 -13 -14 -14 -14 -14 -14 -14 -14 -14 -13
-9 -8 -8 -8 -8 -8 -8 -8 -8 -8 -8 -8 -8 -7 -7 -7 -7 -7 -8 -8 -9 -9 -9 -10 -10 -10 -11 -11 -12 -12 -13 -13 -13 -14 -14 -14 -14 -14 -14 -14 -14 -14 -14